User: anonymous   Login
Location: *
(43.4667°N, 11.6833°E)
Time: 04:03:17
(UTC+00:00)
Language:

Cosmos 1242 Rocket - Orbit

View from above orbital plane
View from above orbital plane
View from above satellite
View from above satellite

Ground track
Ground track

The orbit data is extracted from the following two-line orbital elements,

1 12155U 81008B   19258.81690785  .00000749  00000-0  22699-4 0  9992
2 12155  81.1643 168.6919 0029795  56.1857 304.2210 15.32298802118072
Epoch (UTC): 15 September 2019 19:36:20
Eccentricity: 0.0029795
inclination: 81.1643°
perigee height: 448 km
apogee height: 489 km
right ascension of ascending node: 168.6919°
argument of perigee: 56.1857°
revolutions per day: 15.32298802
mean anomaly at epoch: 304.2210°
orbit number at epoch: 11807

The dashed part of the orbit path shows where the satellite is in the earth's shadow,  

DLR